Location: Grieser Field
(39.7333°N, 81.7975°W)
Time: 06:05:44
(UTC-04:00)

MOS 1-B - Visible Passes

Search period start: 31 May 2016 00:00
Search period end: 10 June 2016 00:00
Orbit: 905 x 914 km, 99.2° (Epoch: 30 May)

Date Brightness Start Highest point End Pass type
(mag) Time Alt. Az. Time Alt. Az. Time Alt. Az.
31 May 5.3 03:49:13 10° NNE 03:54:42 42° E 03:59:20 14° SSE visible
01 Jun 5.1 03:54:37 10° NNE 04:00:11 47° E 04:04:54 14° S visible
02 Jun 5.0 04:00:01 10° NNE 04:05:40 52° E 04:10:28 14° S visible
03 Jun 4.8 04:05:26 10° NNE 04:11:09 58° ESE 04:16:01 14° S visible
04 Jun 4.7 04:10:51 10° NNE 04:16:37 65° ESE 04:21:35 14° S visible
05 Jun 4.5 04:16:17 10° NNE 04:22:05 72° ESE 04:27:09 14° S visible
06 Jun 4.4 04:21:43 10° NNE 04:27:33 80° ESE 04:32:42 14° S visible
07 Jun 6.8 02:48:57 10° ENE 02:50:26 11° E 02:51:55 10° ESE visible
07 Jun 4.4 04:27:11 10° NNE 04:33:00 88° E 04:38:15 13° SSW visible
08 Jun 6.7 02:53:35 10° ENE 02:55:59 13° E 02:58:21 10° ESE visible
08 Jun 4.3 04:32:38 10° NNE 04:38:28 84° WNW 04:43:48 13° SSW visible
09 Jun 6.7 02:58:31 10° ENE 03:01:31 14° E 03:04:30 10° ESE visible
09 Jun 4.4 04:38:07 10° N 04:43:55 76° WNW 04:49:21 12° SSW visible
